Meteo Giornale » Osservazioni meteo Stati Uniti (USA) » Berlin

ore: 15:52 - Osservazioni Meteo Berlin
Lat. 44° 34' N Lon. 71° 10' W Alt. 353 metri s.l.m.

sereno America/New_York

0 °C

Sereno

Temp. 24 Ore

-5 °C

2 °C

Ovest/Nord-Ovest

9.3 Km/h

Dew point -9 °C

Umidità 50 %

Visibilità  10 Km

Il sole sorge alle ore 06:59

Il sole tramonta alle ore 16:07

Data e Ora Cielo e Fenomeni T °C DP °C Um. % Pres. hPa Vis. km Vento km/h
Oggi h: 15:52 sereno Sereno 0 -9 50 1016 10 O/NO 9.3
Oggi h: 14:52 poco_nuvoloso Poco Nuvoloso 2 -6 55 1016 10 N 11.1
Oggi h: 14:00 molto_nuvoloso Molto Nuvoloso 2 -5 59 1015 10 N 11.1
Oggi h: 13:52 molto_nuvoloso Molto Nuvoloso 2 -4 64 1015 10 N 9.3
Oggi h: 13:00 coperto Coperto 2 -4 64 1015 10 N 9.3
Oggi h: 12:52 coperto Coperto 2 -3 69 1015 10 N 9.3
Oggi h: 12:44 coperto Coperto 1 -3 74 1015 10 O 13
Oggi h: 12:37 coperto Coperto 1 -3 74 1015 10 N 9.3
Oggi h: 12:11 coperto Coperto 2 -3 69 1014 10 N 0
Oggi h: 11:52 coperto Coperto 2 -3 69 1014 10 N 9.3
Oggi h: 11:42 coperto Coperto 2 -3 69 1014 14 O/NO 11.1
Oggi h: 10:52 coperto Coperto 2 -2 74 1014 14 N 5.5
Oggi h: 10:27 coperto Coperto 2 -2 74 1013 10 N 9.3
Oggi h: 09:52 coperto_neve Neve Debole Foschia -1 -3 86 1013 10 N 0
Oggi h: 08:52 coperto Coperto -2 -4 86 1012 10 N 0
Oggi h: 08:26 molto_nuvoloso Molto Nuvoloso -3 -5 86 1012 10 N 0
Oggi h: 07:52 coperto Coperto -3 -5 86 1011 10 N 0
Oggi h: 07:27 coperto Coperto -3 -6 79 1011 13 N 0
Oggi h: 06:52 coperto Coperto -4 -5 92 1011 10 N 0
Oggi h: 06:33 coperto Coperto -4 -6 85 1011 10 N 0
Oggi h: 06:17 coperto Coperto -4 -6 85 1011 10 N 0
Oggi h: 05:52 nuvoloso Nuvoloso -5 -7 85 1011 10 N 5.5
Oggi h: 05:47 molto_nuvoloso Molto Nuvoloso -4 -6 85 1011 10 N 0
Oggi h: 04:52 coperto Coperto -3 -6 79 1010 10 N 0
Oggi h: 03:52 coperto Coperto -4 -6 85 1010 14 N 0
Oggi h: 03:06 coperto_neve Neve Debole Foschia -4 -6 85 1010 8 N 0
Oggi h: 02:52 coperto_neve Neve Debole Foschia -4 -6 85 1009 2 N 0
Oggi h: 02:34 coperto_neve Neve Debole Foschia -4 -6 85 1010 2 N 0
Oggi h: 02:24 coperto_neve Neve Debole Foschia -4 -6 85 1010 2 N 0
Oggi h: 01:52 coperto_neve Neve Debole Foschia -5 -7 85 1009 6 N 0
Oggi h: 01:50 coperto_neve Neve Debole Foschia -5 -7 85 1009 6 N 0
Oggi h: 01:12 coperto Coperto -5 -7 85 1009 10 N 0
Oggi h: 00:52 coperto Coperto -4 -7 79 1009 10 N 0
Ieri h: 23:52 coperto Coperto -4 -7 79 1009 10 N 0
Ieri h: 22:52 coperto Coperto -4 -6 85 1009 10 N 0
Ieri h: 21:52 coperto Coperto -4 -7 79 1009 10 N 0
Ieri h: 20:52 coperto Coperto -4 -7 79 1009 10 N 0
Ieri h: 19:52 coperto Coperto -3 -7 73 1009 10 N 0
Ieri h: 18:52 coperto Coperto -3 -7 73 1009 10 N 0
Ieri h: 17:52 coperto Coperto -2 -7 68 1009 10 N 0
Ieri h: 16:52 coperto Coperto -2 -8 63 1009 10 N 0
Ieri h: 15:52 coperto Coperto -2 -8 63 1008 10 N 0